Location: Gälforsberget
(66.6500°N, 22.4167°E)
Time: 12:30:29
(UTC+00:00)

Cosmos 1536 Rocket - Pass Details

Date: 11 April 2026
Orbit: 598 x 626 km, 82.5° (Epoch: 10 May)

Event Time Altitude Azimuth Distance (km) Brightness Sun altitude
Rises 22:05:38 0° 341° (NNW) 2,876 8.7 -14.6°
Reaches altitude 10° 22:07:53 10° 338° (NNW) 1,964 7.4 -14.6°
Maximum altitude 22:12:08 57° 260° (W) 714 3.8 -14.7°
Enters shadow 22:14:29 25° 190° (S) 1,239 4.5 -14.7°
